FW1657 Weather Reports


Display with metric or nautical units.
time (UTC)temp
F
wind
direction
speed
MPH
gust
MPH
rain 1hr
in
rain 24hr
in
rain mn
in
humidity
%
barometer
mb
20260902044530 54 42 0.0 3.0 0.00 0.00 0.00 87 1020.9
20260902043026 54 42 2.0 3.0 0.00 0.00 0.00 87 1020.8
20260902041532 53 48 0.0 3.0 0.00 0.00 0.00 87 1021.0
20260902040023 53 49 0.0 3.0 0.00 0.00 0.00 88 1021.0
20260902034523 53 50 0.0 0.0 0.00 0.00 0.00 88 1021.2
20260902033023 53 50 0.0 0.0 0.00 0.00 0.00 88 1021.3
20260902031523 53 50 0.0 0.0 0.00 0.00 0.00 88 1021.1
20260902030022 52 50 0.0 0.0 0.00 0.00 0.00 88 1021.2
20260902024521 52 50 0.0 0.0 0.00 0.00 0.00 87 1021.1
20260902023021 52 50 0.0 1.0 0.00 0.00 0.00 87 1021.2
20260902021526 52 50 0.0 1.0 0.00 0.00 0.00 87 1021.2
20260902020021 52 50 0.0 3.0 0.00 0.00 0.00 87 1021.3
20260902014528 52 49 2.0 3.0 0.00 0.00 0.00 88 1021.2
20260902013017 52 49 0.0 2.0 0.00 0.00 0.00 87 1021.3
20260902011522 52 49 1.0 3.0 0.00 0.00 0.00 87 1021.4
20260902010029 52 49 1.0 2.0 0.00 0.00 0.00 87 1021.4
20260902004518 52 49 2.0 3.0 0.00 0.00 0.00 86 1021.4
20260902003012 52 49 0.0 0.0 0.00 0.00 0.00 86 1021.4
20260902001510 53 49 0.0 1.0 0.00 0.00 0.00 86 1021.3
20260902000013 53 49 1.0 3.0 0.00 0.00 0.00 86 1021.3
20260901234508 53 49 1.0 4.0 0.00 0.00 0.00 86 1021.3
20260901233010 53 129 0.0 0.0 0.00 0.00 0.00 85 1021.4
20260901231506 53 129 0.0 0.0 0.00 0.00 0.00 85 1021.5
20260901230005 54 129 0.0 0.0 0.00 0.00 0.00 85 1021.5
20260901224501 54 129 0.0 0.0 0.00 0.00 0.00 84 1021.5
20260901223104 54 129 0.0 0.0 0.00 0.00 0.00 84 1021.7
20260901221615 54 129 0.0 0.0 0.00 0.00 0.00 84 1021.7
20260901220055 55 129 0.0 0.0 0.00 0.00 0.00 83 1021.6
20260901214555 55 129 0.0 0.0 0.00 0.00 0.00 83 1021.7
20260901213100 55 129 0.0 0.0 0.00 0.00 0.00 82 1021.7
20260901211554 56 128 0.0 0.0 0.00 0.00 0.00 82 1021.7
20260901210052 56 128 0.0 0.0 0.00 0.00 0.00 81 1021.6
20260901204552 57 128 0.0 0.0 0.00 0.00 0.00 80 1021.4
20260901203052 57 129 0.0 0.0 0.00 0.00 0.00 79 1021.4
20260901201551 58 128 0.0 0.0 0.00 0.00 0.00 78 1021.6
20260901200104 58 129 0.0 0.0 0.00 0.00 0.00 78 1021.4
20260901194558 59 129 0.0 0.0 0.00 0.00 0.00 76 1021.4
20260901193059 60 129 0.0 0.0 0.00 0.00 0.00 74 1021.3
20260901191549 61 129 0.0 0.0 0.00 0.00 0.00 73 1021.4
20260901190100 63 129 0.0 0.0 0.00 0.00 0.00 69 1021.4
20260901184547 64 129 0.0 0.0 0.00 0.00 0.00 67 1021.3
20260901183046 65 129 0.0 2.0 0.00 0.00 0.00 65 1021.3
20260901181546 66 128 1.0 3.0 0.00 0.00 0.00 63 1021.3
20260901180045 67 132 3.0 5.0 0.00 0.00 0.00 60 1021.2
20260901174557 69 139 4.0 8.0 0.00 0.00 0.00 59 1021.0
20260901173044 69 127 2.0 8.0 0.00 0.00 0.00 59 1021.0
20260901171543 69 145 3.0 8.0 0.00 0.00 0.00 60 1021.0
20260901170129 69 137 4.0 10.0 0.00 0.00 0.00 59 1021.0
20260901164543 70 160 5.0 10.0 0.00 0.00 0.00 56 1020.8
20260901163042 70 122 4.0 10.0 0.00 0.00 0.00 56 1021.0
20260901161550 70 98 6.0 11.0 0.00 0.00 0.00 56 1020.9
20260901160043 70 136 6.0 12.0 0.00 0.00 0.00 58 1020.8
20260901154541 70 106 8.0 13.0 0.00 0.00 0.00 57 1021.0
20260901153059 70 122 10.0 14.0 0.00 0.00 0.00 56 1021.1
20260901151539 70 115 8.0 13.0 0.00 0.00 0.00 56 1021.1
20260901150037 70 82 11.0 16.0 0.00 0.00 0.00 58 1021.3
20260901144542 69 140 6.0 14.0 0.00 0.00 0.00 60 1021.4
20260901143035 69 100 8.0 12.0 0.00 0.00 0.00 61 1021.3
20260901141540 69 71 7.0 14.0 0.00 0.00 0.00 61 1021.4
20260901140034 69 157 6.0 16.0 0.00 0.00 0.00 61 1021.4
20260901134531 68 135 6.0 15.0 0.00 0.00 0.00 65 1021.5
20260901133038 68 92 7.0 19.0 0.00 0.00 0.00 64 1021.5
20260901131536 68 129 10.0 18.0 0.00 0.00 0.00 65 1021.6
20260901130028 68 123 8.0 16.0 0.00 0.00 0.00 68 1021.7
20260901124530 67 101 7.0 13.0 0.00 0.00 0.00 67 1021.7
20260901123034 66 116 10.0 17.0 0.00 0.00 0.00 66 1021.8
20260901121526 67 115 10.0 18.0 0.00 0.00 0.00 65 1021.7
20260901120024 68 91 15.0 23.0 0.00 0.00 0.00 63 1021.8
20260901114525 68 115 15.0 24.0 0.00 0.00 0.00 64 1021.8
20260901113023 68 113 13.0 19.0 0.00 0.00 0.00 66 1021.8
20260901111521 67 78 12.0 19.0 0.00 0.00 0.00 70 1021.8
20260901110121 67 102 8.0 17.0 0.00 0.00 0.00 71 1022.0
20260901104526 67 115 8.0 13.0 0.00 0.00 0.00 74 1022.0
20260901103014 65 123 10.0 15.0 0.00 0.00 0.00 75 1021.9
20260901101510 64 35 11.0 18.0 0.00 0.00 0.00 80 1022.1
20260901100009 63 91 5.0 10.0 0.00 0.00 0.00 83 1022.3
20260901094508 63 108 7.0 11.0 0.00 0.00 0.00 81 1022.2
20260901093005 62 84 8.0 12.0 0.00 0.00 0.00 81 1022.2
20260901091505 62 121 7.0 12.0 0.00 0.00 0.00 83 1022.3
20260901090006 62 126 7.0 12.0 0.00 0.00 0.00 84 1022.3
20260901084610 62 111 4.0 12.0 0.00 0.00 0.00 86 1022.2
20260901083057 61 94 6.0 12.0 0.00 0.00 0.00 86 1022.0
20260901081552 60 56 4.0 8.0 0.00 0.00 0.00 88 1021.8
20260901080051 59 50 3.0 9.0 0.00 0.00 0.00 89 1021.8
20260901074547 59 86 5.0 8.0 0.00 0.00 0.00 89 1021.6
20260901073046 59 97 4.0 7.0 0.00 0.00 0.00 90 1021.7
20260901071545 58 98 5.0 8.0 0.00 0.00 0.00 92 1021.5
20260901070043 56 92 5.0 9.0 0.00 0.00 0.00 93 1021.5
20260901064541 55 96 4.0 9.0 0.00 0.00 0.00 93 1021.6
20260901063040 55 84 3.0 7.0 0.00 0.00 0.00 93 1021.4
20260901061548 54 53 3.0 5.0 0.00 0.00 0.00 94 1021.3
20260901060042 54 50 2.0 5.0 0.00 0.00 0.00 93 1021.2
20260901054536 53 59 3.0 5.0 0.00 0.00 0.00 93 1021.3
20260901053042 53 58 3.0 5.0 0.00 0.00 0.00 93 1021.2
20260901051539 53 48 3.0 5.0 0.00 0.00 0.00 93 1021.1
20260901050035 53 50 3.0 5.0 0.00 0.00 0.00 93 1021.2